Regional Weather Roundup
Issued by NWS

Home | Current Version | Previous Version | Graphics & Text | Print | Product List | Glossary On
Versions: 1 2 3 4 5 6 7 8 9 10 11 12 13 14 15 16 17 18 19 20 21 22 23 24 25 26 27 28 29 30 31 32 33 34 35 36 37 38 39 40 41 42 43 44 45 46 47 48 49 50
000
ASUS45 KCYS 161410
RWRWY

WYOMING REGIONAL WEATHER ROUNDUP
NATIONAL WEATHER SERVICE CHEYENNE WY
800 AM MDT WED AUG 16 2017

NOTE:  "FAIR" INDICATES FEW OR NO CLOUDS BELOW 12,000 FEET
WITH NO SIGNIFICANT WEATHER AND/OR OBSTRUCTIONS TO VISIBILITY.

WYZ001-161500-
YELLOWSTONE NATIONAL PARK

CITY           SKY/WX    TMP DP  RH WIND       PRES   REMARKS
LK YELLOWSTONE   N/A     40  38  93 CALM      30.28R
W YELLOWSTONE  NOT AVBL

$$
WYZ002>013-054>058-071-098>099-161500-
NORTHERN WYOMING

CITY           SKY/WX    TMP DP  RH WIND       PRES   REMARKS
JACKSON        FAIR      43  37  79 CALM      30.23R
CODY           FAIR      61  42  49 SW5       30.10R
GREYBULL       FAIR      56  49  77 CALM      30.06R
WORLAND        FAIR      52  50  93 W3        30.07R
SHERIDAN       FAIR      56  48  74 CALM      30.03S
BUFFALO        FAIR      65  33  30 W6        30.08S
GILLETTE       FAIR      62  47  57 SW9       30.06R
HULETT         FAIR      57  52  82 S5        30.08R
NEWCASTLE      FAIR      59  48  67 NW7       30.06R

$$
WYZ014>020-022>026-101>103-161500-
CENTRAL WYOMING

CITY           SKY/WX    TMP DP  RH WIND       PRES   REMARKS
BIG PINEY      FAIR      44  40  85 CALM      30.25R
PINEDALE       FAIR      41  39  93 NW5       30.26S
DUBOIS         FAIR      43  34  70 NW7       30.24R
LANDER           N/A    N/A N/A N/A MISG      30.15R
RIVERTON       FAIR      53  49  86 W9        30.15R
CASPER         FAIR      52  49  89 W5        30.13R
DOUGLAS        FAIR      53  50  89 NW8       30.12R

$$
WYZ021-027>030-104>119-161500-
SOUTHERN WYOMING

CITY           SKY/WX    TMP DP  RH WIND       PRES   REMARKS
EVANSTON       FAIR      49  32  52 SE5       30.23R
KEMMERER         N/A     46  39  76 N8        30.25R
FORT BRIDGER   FAIR      51  40  65 S8        30.26S
ROCK SPRINGS   FAIR      51  46  83 S3        30.22R
RAWLINS        FAIR      51  45  79 CALM      30.22R
SARATOGA       FAIR      50  46  87 CALM      30.24R
LARAMIE        FAIR      48  46  93 SE3       30.21R
CHEYENNE       FAIR      54  45  71 NW7       30.14R
TORRINGTON     FAIR      59  53  80 NW9       30.04R
PINE BLUFFS    FAIR      55  50  82 NW10      30.10R

$$



USA.gov is the U.S. government's official web portal to all federal, state and local government web resources and services.